Flag for Ireland Weather past 2 weeks in Dundalk, Ireland

Now
41 °F

Quite cool.


Feels Like: 34 °F
Forecast: 41 / 48 °F
Wind: 12 mph from Northwest

Location: Glenanne

Current Time: Dec 20, 2014 at 8:04:11 AM

Latest Report: Dec 20, 2014 at 7:00 AM


Visibility: 13 mi

Pressure: 30.17 "Hg

Humidity: 93%

Dew point: 39 °F

Location of DundalkLocation

Historic Weather in Dundalk — Graph

°F

Dundalk temperature yesterday

Maximum temperature yesterday: 42 °F (at 1:00 PM)
Minimum temperature yesterday: 38 °F (at 9:00 AM)
Average temperature yesterday: 40 °F

Past Weeks' High & Low Weather Summary

 TemperatureHumidityPressure
High53 °F (Dec 18, 11:00 AM)100% (Dec 6, 6:00 AM)30.34 "Hg (Dec 6, 6:00 AM)
Low30 °F (Dec 13, 6:00 AM)75% (Dec 14, 4:00 PM)29.23 "Hg (Dec 12, 2:00 AM)
Average40 °F95%29.81 "Hg
* Reported Dec 5 6:00 AM — Dec 20 6:00 AM, Dundalk, Weather by CustomWeather, © 2014

Note: Actual official high and low records may vary slightly from our data, if they occured in-between our weather recording intervals... More about our weather records

Advertising

Dundalk weather history for previous 24 hours

 ConditionsComfort  
Time TempWeatherWind HumidityBarometerVisibility
6:00 AM
Dec 20
42 °FQuite cool.12 mph89%30.16 "Hg14 mi
5:00 AM42 °FQuite cool.10 mph89%30.14 "Hg19 mi
4:00 AM42 °FQuite cool.13 mph89%30.13 "Hg17 mi
3:00 AM42 °FQuite cool.14 mph89%30.11 "Hg18 mi
2:00 AM41 °FQuite cool.13 mph90%30.09 "Hg17 mi
1:00 AM41 °FRain showers. Overcast.13 mph89%30.08 "Hg16 mi
12:00 AM41 °FLight freezing rain. Overcast.10 mph87%30.07 "Hg7 mi
11:00 PM
Dec 19
40 °FQuite cool.12 mph88%30.06 "Hg18 mi
10:00 PM40 °FRain showers. Overcast.12 mph91%30.05 "Hg6 mi
9:00 PM40 °FQuite cool.13 mph89%30.04 "Hg16 mi
8:00 PM40 °FQuite cool.13 mph90%30.03 "Hg13 mi
7:00 PM40 °FQuite cool.13 mph91%30.02 "Hg14 mi
6:00 PM40 °FQuite cool.13 mph90%30.00 "Hg9 mi
5:00 PM40 °FRain showers. Overcast.10 mph92%29.98 "Hg14 mi
4:00 PM40 °FRain showers. Cloudy.13 mph93%29.96 "Hg7 mi
3:00 PM41 °FRain showers. Cloudy.13 mph91%29.94 "Hg7 mi
2:00 PM41 °FRain showers. Cloudy.14 mph86%29.92 "Hg13 mi
1:00 PM42 °FQuite cool.10 mph90%29.90 "Hg15 mi
12:00 PM41 °FQuite cool.15 mph88%29.88 "Hg16 mi
11:00 AM40 °FChilly.15 mph90%29.87 "Hg19 mi
10:00 AM39 °FChilly.14 mph91%29.84 "Hg14 mi
9:00 AM38 °FChilly.14 mph92%29.80 "Hg15 mi
8:00 AM38 °FLots of rain. Overcast.12 mph93%29.77 "Hg7 mi
Weather by CustomWeather, © 2014

See weather overviewHow to use our weather pages